SCP
0 0 0 0 0 0 0 0 0 0 0 0 0 0 0 0 0 0 0 0 0 0 0 0 0 0 0 0 0 0 0 0 0 0 0 0 0 0
0 0 0 0 0 0 0 0 0 0 0 0 0 0 0 0 0 0 0 0 0 0 0 0 0 0 0 0 0 0 0 0 0 0 0 0 0 0
0 0 0 0 0 0 0 0 0 0 0 0 0 0 0 0 0 0 0 0 0 0 0 0 0 0 0 0 0 0 0 0 0 0 0 0 0 0
0 0 0 0 0 0 0 0 0 0 0 0 0 0 0 0 0 0 0 0 0 0 0 0 0 0 0 0 0 0 0 0 0 0 0 0 0 0
0 0 0 0 0 0 0 0 0 0 0 0 0 0 0 0 0 0 0 0 0 0 0 0 0 0 0 0 0 0 0 0 0 0 0 0 0 0
0 0 0 0 0 0 0 0 0 0 0 0 0 0 0 0 0 0 0 0 0 0 0 0 0 0 0 0 0 0 0 0 0 0 0 0 0 0
0 0 0 0 0 0 0 0 0 0 0 0 0 0 0 0 0 0 0 0 0 0 0 0 0 0 0 0 0 0 0 0 0 0 0 0 0 0
0 0 0 0 0 0 0 0 0 0 0 0 0 0 0 0 0 0 0 0 0 0 0 0 0 0 0 0 0 0 0 0 0 0 0 0 0 0
0 0 0 0 0 0 0 0 0 0 0 0 0 0 0 0 0 0 0 0 0 0 0 0 0 0 0 0 0 0 0 0 0 0 0 0 0 0
0 0 0 0 0 0 0 0 0 0 0 0 0 0 0 0 0 0 0 0 0 0 0 0 0 0 0 0 0 0 0 0 0 0 0 0 0 0
0 0 0 0 0 0 0 0 0 0 0 0 0 0 0 0 0 0 0 0 0 0 0 0 0 0 0 0 0 0 0 0 0 0 0 0 0 0
0 0 0 0 0 0 0 0 0 0 0 0 0 0 0 0 0 0 0 0 0 0 0 0 0 0 0 0 0 0 0 0 0 0 0 0 0 0
0 0 0 0 0 0 0 0 0 0 0 0 0 0 0 0 0 0 0 0 0 0 0 0 0 0 0 0 0 0 0 0 0 0 0 0 0 0
0 0 0 0 0 0 0 0 0 0 0 0 0 0 0 0 0 0 0 0 0 0 0 0 0 0 0 0 0 0 0 0 0 0 0 0 0 0
0 0 0 0 0 0 0 0 0 0 0 0 0 0 0 0 0 0 0 0 0 0 0 0 0 0 0 0 0 0 0 0 0 0 0 0 0 0
0 0 0 0 0 0 0 0 0 0 0 0 0 0 0 0 0 0 0 0 0 0 0 0 0 0 0 0 0 0 0 0 0 0 0 0 0 0
0 0 0 0 0 0 0 0 0 0 0 0 0 0 0 0 0 0 0 0 0 0 0 0 0 0 0 0 0 0 0 0 0 0 0 0 0 0
0 0 0 0 0 0 0 0 0 0 0 0 0 0 0 0 0 0 0 0 0 0 0 0 0 0 0 0 0 0 0 0 0 0 0 0 0 0
0 0 0 0 0 0 0 0 0 0 0 0 0 0 0 0 0 0 0 0 0 0 0 0 0 0 0 0 0 0 0 0 0 0 0 0 0 0
0 0 0 0 0 0 0 0 0 0 0 0 0 0 0 0 0 0 0 0 0 0 0 0 0 0 0 0 0 0 0 0 0 0 0 0 0 0
0 0 0 0 0 0 0 0 0 0 0 0 0 0 0 0 0 0 0 0 0 0 0 0 0 0 0 0 0 0 0 0 0 0 0 0 0 0
0 0 0 0 0 0 0 0 0 0 0 0 0 0 0 0 0 0 0 0 0 0 0 0 0 0 0 0 0 0 0 0 0 0 0 0 0 0
0 0 0 0 0 0 0 0 0 0 0 0 0 0 0 0 0 0 0 0 0 0 0 0 0 0 0 0 0 0 0 0 0 0 0 0 0 0
Wind_Speed
3 3 3 3 2 2 2 2 4 5 5 3 2 1 2 3 5 5 5 8 10 11 12 11 11 10 11 12 13 13 12 12 12 14 14 15 16 16
3 4 4 3 3 3 3 3 3 5 6 3 3 3 4 4 6 5 6 8 9 10 11 11 11 11 12 12 13 13 12 12 13 15 16 16 17 17
5 5 5 5 4 3 3 3 3 3 6 5 3 4 4 5 6 5 5 5 6 10 11 11 12 12 12 12 12 12 12 13 13 15 16 16 17 17
5 5 5 4 5 4 4 4 4 4 5 7 5 4 5 5 6 6 5 5 5 9 11 11 11 11 12 12 12 12 12 12 14 15 15 16 17 17
4 4 5 5 5 4 4 4 4 5 4 6 6 5 4 4 5 5 5 5 5 7 10 11 11 12 12 12 12 13 13 13 14 14 15 15 16 17
3 4 4 4 5 5 4 4 5 5 5 5 6 6 5 5 4 5 6 4 5 6 8 8 10 12 13 13 13 12 13 14 15 15 15 15 16 16
4 4 4 6 7 6 5 5 5 5 5 5 6 6 5 5 5 4 6 6 6 4 4 5 5 6 7 10 11 12 13 13 14 16 16 16 16 16
4 4 4 5 8 10 11 10 8 7 6 6 6 7 8 7 6 6 7 6 6 2 4 6 4 6 6 5 10 12 13 13 13 14 15 16 16 16
4 4 5 5 8 5 8 11 10 11 10 7 7 8 8 8 8 8 7 7 8 6 5 8 5 7 6 7 12 13 13 13 13 13 13 13 15 16
4 4 5 5 6 7 6 6 6 6 8 6 6 8 8 8 8 8 9 9 7 5 4 7 6 6 6 6 12 13 12 12 12 12 12 13 13 14
4 4 5 5 10 13 8 7 8 6 9 12 13 12 14 15 11 6 6 7 8 6 3 4 5 5 6 6 8 12 12 12 13 13 13 12 13 13
4 4 8 9 12 14 7 7 9 8 7 8 8 10 9 9 11 6 5 6 7 6 3 3 4 4 6 5 5 5 7 11 14 14 13 13 12 8
4 4 4 12 14 14 11 6 9 10 7 7 7 6 6 5 5 5 5 5 7 7 4 4 5 5 6 6 6 5 6 6 7 9 11 13 13 9
4 4 6 13 14 14 10 11 14 11 5 5 6 6 5 5 5 6 7 7 8 10 9 7 6 6 7 8 7 5 5 5 5 6 6 10 11 12
4 9 11 13 12 8 10 13 10 5 5 6 6 6 5 6 6 6 7 7 9 9 8 8 7 7 7 8 8 6 6 5 5 5 5 5 6 6
5 7 10 10 9 9 9 7 5 5 6 6 6 7 6 6 6 6 6 7 7 7 6 7 7 8 8 9 8 8 6 5 4 4 5 5 5 6
6 3 3 4 4 4 4 4 4 5 6 5 6 7 7 7 7 6 6 6 6 7 7 5 5 7 9 8 8 8 7 6 5 4 4 5 5 6
7 3 4 4 5 5 6 6 5 6 6 6 6 7 7 7 8 7 6 6 7 7 7 6 6 5 4 6 9 8 7 6 4 4 4 5 5 5
4 4 4 5 5 5 5 6 6 7 6 6 7 7 7 7 7 7 7 6 7 7 7 6 5 5 6 7 5 6 5 4 3 4 4 4 5 5
3 4 5 5 5 5 6 6 7 7 6 6 6 6 7 7 7 8 7 7 7 8 7 6 5 5 6 7 6 5 7 6 4 4 3 2 2 2
4 5 5 5 5 6 6 6 6 7 7 7 7 7 7 7 7 8 8 11 9 7 8 7 6 9 6 4 5 5 4 5 5 4 3 2 2 2
5 5 5 6 6 6 6 6 7 7 7 7 7 7 7 7 8 9 8 8 7 7 8 7 6 5 4 5 6 6 5 3 3 4 4 4 3 5
5 5 6 6 6 6 6 7 8 7 7 7 7 7 7 7 7 8 8 8 8 8 8 7 6 4 5 5 5 4 5 4 2 1 1 2 2 3
Wind_Direction
330 324 314 308 302 297 294 279 273 277 272 273 278 301 303 297 297 272 266 272 267 265 267 271 273 268 263 258 254 252 251 244 236 234 234 233 233 235
339 340 337 333 324 319 309 296 277 273 275 279 276 301 307 306 302 283 273 281 268 267 266 267 267 264 262 259 254 250 246 241 236 234 235 236 235 235
351 350 346 343 341 338 328 318 307 291 281 290 288 299 293 300 301 288 281 271 268 274 271 270 270 264 261 260 257 252 248 242 235 235 237 237 237 235
346 347 343 343 342 337 335 328 315 303 288 293 299 301 291 295 294 290 292 288 278 276 273 271 269 268 267 263 259 254 249 246 239 236 237 237 237 237
334 335 332 336 332 329 328 325 318 315 304 296 300 301 295 303 301 296 292 282 286 285 277 271 268 269 269 266 263 257 251 248 243 239 237 236 236 237
320 322 323 324 323 321 321 318 316 313 309 302 303 307 303 302 301 303 302 293 290 289 279 278 276 271 267 266 264 259 252 248 243 239 237 234 233 235
320 323 323 329 331 330 324 321 318 311 310 307 305 308 309 317 316 312 302 304 288 274 280 273 268 258 256 261 264 257 252 250 246 241 238 234 232 231
320 319 316 320 328 331 327 324 321 315 309 303 302 301 303 304 306 305 303 305 299 297 291 286 267 263 259 247 261 263 258 253 250 246 241 236 233 232
309 313 320 322 327 314 316 320 318 316 312 301 293 292 295 299 299 296 294 290 285 293 298 288 280 269 264 266 267 261 260 256 251 247 244 241 236 232
302 298 301 307 312 316 311 310 303 304 306 301 287 288 291 292 286 287 288 289 282 276 262 275 282 280 281 267 267 261 257 257 250 247 247 245 240 236
303 303 308 302 314 322 320 311 306 303 310 308 303 303 305 306 306 302 302 299 293 287 263 261 279 289 282 270 266 260 256 254 254 248 245 243 244 240
304 303 314 318 319 322 319 311 309 309 311 311 309 308 305 304 308 301 292 289 290 288 277 277 281 296 291 274 265 258 250 253 252 248 246 243 238 232
306 309 306 321 322 323 324 312 307 314 312 308 305 303 301 299 298 294 284 277 279 275 285 289 280 278 272 285 285 266 250 247 243 241 242 241 236 227
301 300 304 319 322 325 324 319 321 324 315 308 304 305 306 303 298 292 284 274 263 266 273 271 270 273 279 278 280 281 265 244 239 241 233 235 232 229
298 307 315 321 325 325 322 325 329 326 315 312 309 305 299 294 295 294 289 280 273 267 265 256 258 266 264 266 272 276 283 267 236 230 225 220 224 215
304 307 317 321 321 318 321 324 322 314 314 306 304 301 300 300 299 300 300 301 294 287 268 255 254 256 262 262 263 270 268 261 247 238 232 229 223 216
306 303 310 316 318 316 315 315 315 316 315 310 307 307 309 308 304 304 297 298 291 294 299 288 267 259 254 254 261 260 262 259 246 237 233 237 225 210
317 311 311 312 313 316 317 317 315 312 311 310 307 305 305 306 305 303 297 293 293 292 292 295 297 293 281 259 237 252 255 252 248 235 227 230 230 213
317 305 304 306 308 309 308 307 307 308 306 304 303 302 301 300 300 302 302 298 293 291 288 288 287 283 283 283 272 236 251 262 253 240 224 221 225 216
300 298 298 300 302 301 301 301 302 304 301 300 298 298 298 298 299 299 299 295 294 293 290 284 275 270 266 271 277 273 250 249 243 242 235 237 241 219
297 296 295 297 297 296 295 294 294 295 295 295 294 293 294 294 294 294 295 295 294 290 289 286 277 284 275 267 269 275 267 245 236 231 217 209 212 197
292 295 296 294 295 293 292 292 292 291 292 290 290 291 290 289 289 291 292 293 290 287 286 287 286 285 269 261 267 276 285 289 264 248 236 224 199 196
290 293 292 291 288 287 287 287 288 288 287 287 287 287 288 288 287 287 288 287 288 289 290 293 294 286 273 265 266 269 272 279 277 270 263 261 225 211